Estación de Tranapuente INIA
Ultimos registro cada 15 minutos 59
| N° | Estación | Fecha / Hora | Temperatura | Humedad | Lluvia | Velocidad | Dirección | Radiación | Presion |
| 59 | Tranapuente INIA | 02-09-2026 14:30 | 13,3 | 68 | 0 | 3,9 | 20 | 630,9 | 1009 |
| 58 | Tranapuente INIA | 02-09-2026 14:15 | 13,2 | 75,9 | 0 | 3,5 | 5 | 382,5 | 1009 |
| 57 | Tranapuente INIA | 02-09-2026 14:00 | 13,4 | 69,5 | 0 | 3,6 | 359 | 593,6 | 1009 |
| 56 | Tranapuente INIA | 02-09-2026 13:45 | 13 | 69 | 0 | 4,7 | 350 | 454,3 | 1010 |
| 55 | Tranapuente INIA | 02-09-2026 13:30 | 13 | 66 | 0 | 4 | 344 | 249,5 | 1010 |
| 54 | Tranapuente INIA | 02-09-2026 13:15 | 13,6 | 71,8 | 0 | 3,8 | 4 | 545,3 | 1010 |
| 53 | Tranapuente INIA | 02-09-2026 13:00 | 13,8 | 68,5 | 0 | 2,8 | 6 | 598,5 | 1010 |
| 52 | Tranapuente INIA | 02-09-2026 12:45 | 13,8 | 66,9 | 0 | 3,5 | 10 | 705 | 1010 |
| 51 | Tranapuente INIA | 02-09-2026 12:30 | 13,9 | 59,8 | 0 | 3,5 | 343 | 592,7 | 1010 |
| 50 | Tranapuente INIA | 02-09-2026 12:15 | 13,8 | 61,6 | 0 | 2,9 | 348 | 565,9 | 1010 |
| 49 | Tranapuente INIA | 02-09-2026 12:00 | 13,5 | 66,1 | 0 | 2,4 | 13 | 600 | 1010 |
| 48 | Tranapuente INIA | 02-09-2026 11:45 | 13,5 | 68,2 | 0 | 3,2 | 23 | 614,5 | 1010 |
| 47 | Tranapuente INIA | 02-09-2026 11:30 | 13,3 | 68,3 | 0 | 2,7 | 356 | 574,8 | 1010 |
| 46 | Tranapuente INIA | 02-09-2026 11:15 | 13,1 | 73,3 | 0 | 3,6 | 346 | 569,8 | 1009 |
| 45 | Tranapuente INIA | 02-09-2026 11:00 | 12,6 | 75,3 | 0 | 3,1 | 356 | 309,7 | 1009 |
| 44 | Tranapuente INIA | 02-09-2026 10:45 | 13 | 75,4 | 0 | 2 | 350 | 415,1 | 1009 |
| 43 | Tranapuente INIA | 02-09-2026 10:30 | 13,1 | 77,5 | 0 | 2,9 | 15 | 439,8 | 1009 |
| 42 | Tranapuente INIA | 02-09-2026 10:15 | 12,8 | 81,8 | 0 | 2,2 | 8 | 473,7 | 1009 |
| 41 | Tranapuente INIA | 02-09-2026 10:00 | 12,3 | 80,9 | 0 | 1,8 | 0 | 317 | 1009 |
| 40 | Tranapuente INIA | 02-09-2026 09:45 | 12,4 | 83,4 | 0 | 1,6 | 0 | 236,4 | 1009 |
| 39 | Tranapuente INIA | 02-09-2026 09:30 | 12,1 | 84,8 | 0 | 1 | 27 | 277,3 | 1009 |
| 38 | Tranapuente INIA | 02-09-2026 09:15 | 11,9 | 87,1 | 0 | 0,5 | 24 | 278,7 | 1009 |
| 37 | Tranapuente INIA | 02-09-2026 09:00 | 11,3 | 89 | 0 | 0 | 0 | 173,4 | 1009 |
| 36 | Tranapuente INIA | 02-09-2026 08:45 | 10,9 | 91,9 | 0 | 0 | 0 | 95,3 | 1009 |
| 35 | Tranapuente INIA | 02-09-2026 08:30 | 10,4 | 93 | 0 | 0 | 0 | 104,1 | 1009 |
| 34 | Tranapuente INIA | 02-09-2026 08:15 | 10,1 | 94,4 | 0 | 0 | 0 | 49,4 | 1008 |
| 33 | Tranapuente INIA | 02-09-2026 08:00 | 9,8 | 94 | 0 | 0 | 0 | 44,4 | 1008 |
| 32 | Tranapuente INIA | 02-09-2026 07:45 | 9,6 | 94,4 | 0 | 0 | 0 | 21,6 | 1008 |
| 31 | Tranapuente INIA | 02-09-2026 07:30 | 9,6 | 94,7 | 0 | 0 | 0 | 6,6 | 1008 |
| 30 | Tranapuente INIA | 02-09-2026 07:15 | 9,9 | 93,6 | 0 | 0 | 0 | 1,5 | 1008 |
| 29 | Tranapuente INIA | 02-09-2026 07:00 | 10,2 | 91,1 | 0 | 0 | 0 | 0,2 | 1008 |
| 28 | Tranapuente INIA | 02-09-2026 06:45 | 10,3 | 88,6 | 0 | 0,1 | 333 | 0,2 | 1008 |
| 27 | Tranapuente INIA | 02-09-2026 06:30 | 10,5 | 88,7 | 0 | 0,7 | 334 | 0,2 | 1008 |
| 26 | Tranapuente INIA | 02-09-2026 06:15 | 10,7 | 90,3 | 0 | 0,8 | 327 | 0,2 | 1008 |
| 25 | Tranapuente INIA | 02-09-2026 06:00 | 10,8 | 92,4 | 0 | 0,3 | 330 | 0,2 | 1008 |
| 24 | Tranapuente INIA | 02-09-2026 05:45 | 10,9 | 92,7 | 0 | 1,3 | 339 | 0,2 | 1007 |
| 23 | Tranapuente INIA | 02-09-2026 05:30 | 11,1 | 93,1 | 0 | 1,2 | 336 | 0,2 | 1007 |
| 22 | Tranapuente INIA | 02-09-2026 05:15 | 11,3 | 93,8 | 0 | 1,5 | 334 | 0,2 | 1007 |
| 21 | Tranapuente INIA | 02-09-2026 05:00 | 11,2 | 95,1 | 0 | 1,3 | 349 | 0,2 | 1007 |
| 20 | Tranapuente INIA | 02-09-2026 04:45 | 10,9 | 95,4 | 0 | 1,3 | 2 | 0,2 | 1007 |
| 19 | Tranapuente INIA | 02-09-2026 04:30 | 10,9 | 95,1 | 0 | 0,5 | 5 | 0,2 | 1007 |
| 18 | Tranapuente INIA | 02-09-2026 04:15 | 10,9 | 94,9 | 0 | 1,6 | 9 | 0,2 | 1007 |
| 17 | Tranapuente INIA | 02-09-2026 04:00 | 11 | 95,6 | 0 | 1,7 | 1 | 0,2 | 1007 |
| 16 | Tranapuente INIA | 02-09-2026 03:45 | 11 | 95,9 | 0 | 2 | 3 | 0,2 | 1007 |
| 15 | Tranapuente INIA | 02-09-2026 03:30 | 11 | 95,7 | 0,1 | 1,9 | 5 | 0,2 | 1008 |
| 14 | Tranapuente INIA | 02-09-2026 03:15 | 10,9 | 95 | 0 | 1,6 | 3 | 0,2 | 1008 |
| 13 | Tranapuente INIA | 02-09-2026 03:00 | 10,9 | 94,9 | 0 | 2,1 | 4 | 0,2 | 1008 |
| 12 | Tranapuente INIA | 02-09-2026 02:45 | 10,9 | 95,1 | 0 | 2,2 | 4 | 0,2 | 1008 |
| 11 | Tranapuente INIA | 02-09-2026 02:30 | 10,9 | 94,6 | 0 | 2 | 4 | 0,2 | 1008 |
| 10 | Tranapuente INIA | 02-09-2026 02:15 | 10,8 | 95 | 0 | 2,3 | 358 | 0,2 | 1008 |
| 9 | Tranapuente INIA | 02-09-2026 02:00 | 10,8 | 95,6 | 0,1 | 2,7 | 358 | 0,2 | 1008 |
| 8 | Tranapuente INIA | 02-09-2026 01:45 | 10,8 | 96,1 | 0 | 2 | 355 | 0,2 | 1008 |
| 7 | Tranapuente INIA | 02-09-2026 01:30 | 10,8 | 95,6 | 0,1 | 2,7 | 3 | 0,2 | 1008 |
| 6 | Tranapuente INIA | 02-09-2026 01:15 | 10,9 | 95,5 | 0 | 2,4 | 2 | 0,2 | 1008 |
| 5 | Tranapuente INIA | 02-09-2026 01:00 | 11,1 | 95,7 | 0 | 3 | 352 | 0,2 | 1008 |
| 4 | Tranapuente INIA | 02-09-2026 00:45 | 11,1 | 96,6 | 0,2 | 2,8 | 359 | 0,2 | 1008 |
| 3 | Tranapuente INIA | 02-09-2026 00:30 | 11 | 96 | 0,2 | 1,9 | 354 | 0,2 | 1008 |
| 2 | Tranapuente INIA | 02-09-2026 00:15 | 11 | 94,5 | 0,1 | 1 | 355 | 0,2 | 1008 |
| 1 | Tranapuente INIA | 02-09-2026 00:00 | 11,1 | 91,2 | 0 | 1,4 | 8 | 0,2 | 1008 |